Location: *
(52.2090°N, 4.1550°W)
Time: 11:31:32
(UTC+00:00)

ATLAS 3B R/B - Visible Passes

Search period start: 15 October 2019 00:00
Search period end: 25 October 2019 00:00
Orbit: 1028 x 1166 km, 63.8° (Epoch: 07 October)

Date Brightness Start Highest point End Pass type
(mag) Time Alt. Az. Time Alt. Az. Time Alt. Az.
15 Oct 4.1 01:56:43 31° N 01:56:43 31° N 02:02:31 10° ENE visible
15 Oct 3.4 03:43:59 18° NW 03:48:50 48° NNE 03:55:22 10° ESE visible
15 Oct 2.7 05:33:12 10° NW 05:39:47 62° SW 05:46:30 10° SSE visible
16 Oct 4.5 01:11:14 25° NNE 01:11:14 25° NNE 01:14:43 10° ENE visible
16 Oct 3.7 02:58:31 28° NNW 03:01:13 39° NNE 03:07:30 10° E visible
16 Oct 2.6 04:45:53 10° NW 04:52:36 87° SW 04:59:26 10° SE visible
17 Oct 5.0 00:25:51 15° NE 00:25:51 15° NE 00:27:03 10° NE visible
17 Oct 3.9 02:13:08 34° N 02:13:31 34° NNE 02:19:34 10° ENE visible
17 Oct 2.9 04:00:26 20° NW 04:05:17 69° NE 04:12:04 10° ESE visible
17 Oct 3.2 05:49:37 10° NW 05:55:39 37° WSW 06:01:47 10° S visible
18 Oct 4.4 01:27:54 26° NE 01:27:54 26° NE 01:31:37 10° ENE visible
18 Oct 3.3 03:15:12 34° NNW 03:17:50 52° NNE 03:24:27 10° ESE visible
18 Oct 2.7 05:02:30 12° NW 05:08:39 55° SW 05:15:16 10° SSE visible
18 Oct 4.5 19:01:12 10° SE 19:01:17 10° SE 19:01:17 10° SE visible
18 Oct 4.7 20:48:02 10° SSW 20:48:39 13° SSW 20:48:39 13° SSW visible
19 Oct 5.0 00:42:48 14° NE 00:42:48 14° NE 00:43:47 10° ENE visible
19 Oct 3.6 02:30:07 42° NNE 02:30:15 42° NNE 02:36:37 10° E visible
19 Oct 2.5 04:17:25 26° NW 04:21:31 79° SW 04:28:19 10° SE visible
19 Oct 3.8 06:06:30 10° WNW 06:11:17 21° WSW 06:16:07 10° SSW visible
19 Oct 3.8 20:01:17 10° SSW 20:04:15 26° S 20:04:15 26° S visible
19 Oct 5.1 21:51:36 10° WSW 21:51:37 10° WSW 21:51:37 10° WSW visible
20 Oct 4.3 01:45:12 26° ENE 01:45:12 26° ENE 01:48:42 10° E visible
20 Oct 2.7 03:32:32 53° NNW 03:34:13 76° NE 03:41:03 10° SE visible
20 Oct 3.3 05:19:51 15° WNW 05:24:27 32° WSW 05:30:22 10° S visible
20 Oct 3.4 19:15:00 10° S 19:19:45 29° SE 19:19:45 29° SE visible
20 Oct 4.0 21:04:06 10° SW 21:07:05 29° SW 21:07:05 29° SW visible
21 Oct 5.2 01:00:29 11° ENE 01:00:29 11° ENE 01:00:45 10° ENE visible
21 Oct 3.2 02:47:49 52° ENE 02:47:49 52° ENE 02:53:30 10° ESE visible
21 Oct 2.8 04:35:09 35° WNW 04:37:29 49° WSW 04:44:00 10° SSE visible
21 Oct 3.8 18:29:22 10° SSE 18:33:52 19° ESE 18:35:04 18° E visible
21 Oct 2.7 20:16:52 10° SW 20:22:23 61° SSW 20:22:23 61° SSW visible
21 Oct 4.8 22:08:25 10° W 22:09:43 16° W 22:09:43 16° W visible
22 Oct 4.5 02:03:16 22° E 02:03:16 22° E 02:05:44 10° E visible
22 Oct 2.5 03:50:37 70° SW 03:50:37 70° SW 03:57:11 10° SSE visible
22 Oct 3.9 05:37:58 16° W 05:40:01 18° WSW 05:44:22 10° SSW visible
22 Oct 4.3 17:45:21 10° ESE 17:47:14 11° ESE 17:49:06 10° E visible
22 Oct 2.7 19:30:00 10° SSW 19:36:26 52° SE 19:37:31 47° E visible
22 Oct 3.7 21:20:38 10° WSW 21:24:50 37° W 21:24:50 37° W visible
23 Oct 3.7 03:06:13 36° SE 03:06:13 36° SE 03:10:00 10° SE visible
23 Oct 3.4 04:53:35 28° WSW 04:53:35 28° WSW 04:58:53 10° S visible
23 Oct 3.2 18:43:32 10° S 18:49:28 34° ESE 18:52:29 23° ENE visible
23 Oct 2.7 20:33:03 10° SW 20:39:45 72° NW 20:39:47 72° NW visible
23 Oct 4.8 22:25:27 10° W 22:27:04 17° WNW 22:27:04 17° WNW visible
24 Oct 4.9 02:21:54 13° ESE 02:21:54 13° ESE 02:22:32 10° ESE visible
24 Oct 3.7 04:09:16 28° S 04:09:16 28° S 04:12:41 10° S visible
24 Oct 3.7 17:57:40 10° SSE 18:02:37 22° ESE 18:07:16 11° ENE visible
24 Oct 2.5 19:45:44 10° SW 19:52:27 84° SE 19:54:33 47° NE visible
24 Oct 4.0 21:37:31 10° W 21:41:51 33° WNW 21:41:51 33° WNW visible
